Location: Unspecified
(40.9447°N, 78.9903°W)
Time: 14:18:36
(UTC-05:00)

Cosmos 2058 - Visible Passes

Search period start: 19 January 2021 00:00
Search period end: 29 January 2021 00:00
Orbit: 562 x 583 km, 82.5° (Epoch: 18 January)

Date Brightness Start Highest point End Pass type
(mag) Time Alt. Az. Time Alt. Az. Time Alt. Az.
20 Jan 6.0 06:44:49 10° NE 06:46:02 11° ENE 06:47:13 10° E visible
21 Jan 5.8 06:46:37 10° NE 06:48:56 14° ENE 06:51:12 10° ESE visible
22 Jan 5.6 06:48:52 10° NNE 06:51:48 19° ENE 06:54:42 10° ESE visible
23 Jan 5.3 06:51:18 10° NNE 06:54:40 24° ENE 06:58:00 10° SE visible
24 Jan 4.9 06:53:49 10° NNE 06:57:30 31° ENE 07:01:09 10° SE visible
25 Jan 4.3 06:56:25 10° N 07:00:19 41° ENE 07:04:11 10° SSE visible
26 Jan 3.7 06:59:05 10° N 07:03:08 55° E 07:07:08 10° SSE visible
27 Jan 3.2 07:01:48 10° N 07:05:54 75° E 07:09:59 10° SSE visible
